SJ-6D (29506 NORAD) Tracking and Keplerian Element Data

This shows tracking and keplerian element data for the satellite.

Feedback or suggestion? Click here.




ElementValue
Catalog29506
NameSJ-6D
Epoch Orbit63859
Epoch Day198.78165415
Epoch Year2018
RAAN204.127
Inclination97.8466
Eccentricity7.78E-05
Argument of Perigee323.2429
Mean Anonmoly36.8732
Mean Motion14.93388326
Decay Rate6.98E-06
L11 29506U 06046B 18198.78165415 .00000698 00000-0 71943-4 0 9993
L22 29506 97.8466 204.1270 0000778 323.2429 36.8732 14.93388326638594

Live tracking and technical data element details for SJ-6D (NORAD 29506). SJ-6D can be tracked NOW for your location showing map with azimuth and elevation plus other details from your city location.

Track the satellite on the map from your city or location and see movement details for azimuth, elevation, latitude, longitude, range, height, and movement on the map or in text.







IsCatalogInMostPopularTable: catalog: 29506, numindb: 54
Update: records affected: 1



GetName: 29506 SJ-6D

Hit Count: updated at: Wed, 18 Jul 2018 20:28:29 GMT